www.pogodaiklimat.ru

Погода и климат >> Архив погоды >> Италия >> Джела


ПОГОДА в Джеле

  • Прогноз погоды в Джеле
  • Монитор погоды в Джеле

АРХИВ ПОГОДЫ в Джеле

Время (UTC), дата Ветер
(напр.,м/с)
 
Видим.   Явления Облачность Т
(С)
Тd
(С)
f
(%)
Тe
(С)
Тes
(С)
Комфортность P
(гПа)
Po
(гПа)
Тmin
(С)
Tmax
(С)
R
(мм)
R24
(мм)
S
(см)
06 19.05 З 1 10 км 3/0
[Ci fib]
+16.4 +12.3 77 +17 +21 1005.4 997.2 +15.8
09 19.05 З 8 10 км 3/0
[Ac trans]
+18.0 +13.1 73 +17 +20 1006.1 998.0
12 19.05 З 8 10 км 3/0
[Ac trans]
+18.0 +12.8 72 +17 +20 1006.6 998.5
15 19.05 З 8 10 км 5/0
[Cs]
+17.6 +12.3 71 +17 +18 1007.4 999.3
18 19.05 З 5 10 км 8/0 2000 м
[Ac trans Cs]
+17.8 +12.7 72 +17 +17 1007.8 999.7 +18.2
06 20.05 СВ 1 20 км 5/1 750 м
[Sc diur, vesp Ac trans]
+15.4 +8.4 63 +16 +19 1012.0 1003.8 +15.4
09 20.05 ЮЗ 3 20 км 6/3 750 м
[Cu med, cong Ac und]
+17.2 +9.1 59 +17 +24 1012.7 1004.5
12 20.05 З 7 20 км 6/3 660 м
[Cu med, cong Ci sp]
+17.4 +11.2 67 +16 +20 1013.0 1004.8
15 20.05 З 8 20 км 6/3 630 м
[Cu med, cong Ci sp]
+17.8 +11.6 67 +17 +18 1012.9 1004.8
18 20.05 З 4 20 км 4/0
[Ci fib]
+18.8 +5.3 41 +19 +19 1013.0 1004.8 +18.8
06 21.05 штиль 0 10 км ясно +15.0 +9.2 68 +15 +20 1015.1 1006.9 +13.8
09 21.05 З 6 10 км 4/0
[Cs]
+17.0 +11.5 70 +16 +22 1016.3 1008.1
12 21.05 З 7 10 км 6/3 1200 м
[Cu med, cong Ci]
+17.4 +11.9 70 +16 +20 1016.2 1008.0
15 21.05 З 7 10 км 5/3 1500 м
[St Ci fib]
+18.0 +8.8 55 +17 +19 1015.6 1007.4
18 21.05 З 4 10 км 8/0
[Ac trans Cs]
+17.6 +8.7 56 +17 +17 1015.2 1007.0 +18.4
06 22.05 СВ 2 10 км 8/0
[Ac lent Cs]
+16.4 +11.8 74 +17 +19 1017.1 1008.9 +15.6
09 22.05 ЮЗ 2 10 км 5/0
[Ac lent]
+18.4 +12.4 68 +19 +29 1017.3 1009.1
12 22.05 ЮЗ 4 20 км 3/0
[Ac trans]
+18.4 +10.5 60 +19 +31 опасность
простуды
1016.4 1008.3
15 22.05 ЮЗ 7 20 км 6/0
[Ac und]
+18.4 +11.2 63 +18 +20 1015.4 1007.3
18 22.05 СЗ 2 20 км 8/0
[Ac lent]
+18.8 +11.6 63 +20 +20 1015.5 1007.4 +18.8
06 23.05 штиль 0 20 км 9/5 600 м
[Cu Sc Ac As]
+15.8 +11.0 73 +16 +17 1016.3 1008.0 +15.2
09 23.05 ЮЗ 2 20 км 6/0
[Ac As Ci sp]
+17.6 +11.4 67 +18 +29 1016.7 1008.5
12 23.05 З 7 20 км 5/5 700 м
[Cu med, cong]
+18.4 +11.0 62 +18 +21 1016.1 1007.9
15 23.05 З 8 20 км 4/4 720 м
[Cu med, cong]
+18.4 +13.3 72 +18 +19 1015.3 1007.2
18 23.05 З 5 10 км 3/3 700 м
[Cu med, cong]
+18.0 +12.0 68 +18 +18 1015.0 1006.9 +19.0
06 24.05 С 1 10 км ясно +16.0 +7.0 55 +17 +21 1014.2 1006.0 +14.8
09 24.05 Ю 4 10 км 3/0
[Ci fib]
+18.0 +8.0 52 +18 +29 1014.2 1006.0
12 24.05 ЮЗ 4 10 км 4/0
[Cs]
+17.0 +11.1 68 +17 +30 опасность
простуды
1014.2 1006.0
15 24.05 ЮЗ 4 20 км 4/0
[Cs]
+17.8 +11.2 65 +18 +23 1013.4 1005.2
18 24.05 ЮЗ 4 10 км 5/0 2000 м
[Ac trans Cs]
+17.6 +13.1 75 +17 +17 1013.2 1005.0 +19.0
06 25.05 штиль 0 10 км 10/5 1200 м
[Sc Ac As]
+17.0 +10.4 65 +17 +18 1013.2 1005.1 +16.2
09 25.05 СВ 4 4000 м в посл. час морось 9/3 1200 м
[Sc Ac As]
+17.6 +11.6 68 +17 +21 1013.1 1005.0
12 25.05 Ю 4 10 км {морось} 9/0 2000 м
[Ac As]
+19.4 +11.5 60 +21 +26 комфорт 1013.4 1005.2 0.6
15 25.05 Ю 3 10 км 5/0 2000 м
[Ac As]
+20.0 +6.0 40 +21 +25 комфорт 1011.3 1003.2
18 25.05 ЮВ 4 10 км 10/0 2000 м
[Ac und]
+18.2 +10.3 60 +18 +18 1010.5 1002.4 +20.4 0.6

 

Местоположение метеостанции Джела (Италия): широта 37.08 долгота 14.22 высота над уровнем моря 65 м.

В архиве по умолчанию представлена погода в Джеле за последнюю неделю. Архивные данные за месяц целиком и за предыдущие месяцы, начиная с января 2011 года, Вы можете получить, выбрав интересующий диапазон дат из раскрывающегося списка и нажав кнопку "Ввод!".


*Определитесь, кто Вы:
робот инопланетянин человек

Внимание! Время в таблицах - всемирное. Для получения местного времени необходимо прибавить поправку, которая равна 1 ч.

Смотрите также архив погоды в соседних городах и на ближайших метеорологических станциях:

Погода в Энне (Италия) (55 км)
Погода в Катании (Италия) (71 км)
Погода в Аэропорту Фонтанаросса (Италия) (85 км)
Погода в Коццо Спадаро (Италия) (92 км)
Погода в Сиракузах (Италия) (94 км)
Погода в Прицци (Италия) (100 км)
Погода в Джибилманне (Италия) (102 км)
Погода в Аэропорту Мальты (Мальта) (139 км)
Погода в Мессине (Италия) (171 км)
Погода на Острове Салина (Италия) (176 км)

Пояснения к столбцам:

Ветер - указаны скорость ветра в м/с - средняя за 10 мин, порывы в срок и между сроками (в фигурных скобках) и направление, откуда дует ветер: С - северный, СВ - северо-восточный, В - восточный, ЮВ - юго-восточный, Ю - южный, ЮЗ - юго-западный, З - западный, СЗ - северо-западный.
Видимость - горизонтальная дальность видимости в метрах или километрах. При видимости от 1 до 10 км при отсутствии осадков обычно наблюдается дымка, при ухудшении видимости до 1 км и менее - туман. В сухую погоду видимость может ухудшаться дымом, пылью или мглою.
Явления - указаны атмосферные явления, наблюдавшиеся в срок или в последний час перед сроком; фигурными скобками обозначены явления, наблюдавшиеся между сроками (за 1-3 часа до срока); квадратными скобками обозначены град или гололедные отложения с указанием их диаметра в мм.
Облачность - указаны через наклонную черту общая и нижняя облачность в баллах и высота нижней границы облаков в метрах; квадратными скобками обозначены формы облаков: Ci - перистые, Cs - перисто-слоистые, Cc - перисто-кучевые, Ac - высококучевые, As - высокослоистые, Sc - слоисто-кучевые, Ns - слоисто-дождевые, Cu - кучевые, Cb - кучево-дождевые. Подробнее классификацию облаков см. в Атласе облаков (PDF).
T - Температура воздуха - температура, измеренная на высоте 2 м над землей.
Td - Температура точки росы - температура, при понижении до которой содержащийся в воздухе водяной пар достигнет насыщения.
f - Относительная влажность воздуха - влажноcть воздуха, измеренная на высоте 2 м над землей.
Te - Эффективная температура - температура, которую ощущает одетый по сезону человек в тени. Характеристика душности погоды. При расчете учитывается влияние влажности воздуха и скорости ветра на теплоощущения человека.
Tes - Эффективная температура на солнце - температура, которую ощущает человек, с поправкой на солнечный нагрев. Характеристика знойности погоды. Зависит от высоты солнца над горизонтом, облачности и скорости ветра. Ночью, в пасмурную погоду, а также при ветре 12 м/с и более поправка равна нулю.
P - Атмосферное давление - приведенное к уровню моря атмосферное давление.
Po - Атмосферное давление - измеренное на уровне метеостанции атмосферное давление.
Tmin - Минимальная температура - минимум температуры воздуха на высоте 2 м над землей.
Tmax - Максимальная температура - максимум температуры воздуха на высоте 2 м над землей.
R - Количество осадков - Количество выпавших осадков за период времени, мм. При наведении курсора мыши на число - период времени, за который выпало указанное количество осадков.
R24 - Количество осадков - Количество выпавших осадков за 24 часа, мм.
S - Снежный покров - Высота снежного покрова, см. При наведении курсора мыши на число - состояние снежного покрова и степень покрытия местности в баллах.